カタリナ彗星

C/2013 G5 ( Catalina )

English version
Home page
Updated on December 14, 2013

---------------------------------------------------------------------

・ プロフィール

発見日 2013年4月13日
発見光度 19.3等
発見者 R. A. Kowalski (Catalina Sky Survey)

・ 写真集

・ 軌道要素

Epoch 2013 Aug. 16.0 TT = JDT 2456520.5
T 2013 Sept. 1.43207 TT                                 MPC
q   0.9286518            (2000.0)            P               Q
z  -0.0003383      Peri.  165.68341     +0.67661824     +0.63054834
 +/-0.0000337      Node   144.24539     -0.72325397     +0.66602473
e   1.0003142      Incl.   40.60019     -0.13817182     -0.39852207
From 87 observations 2013 Apr. 13-June 9, mean residual 0".6.

・ 星図

・ 光度変化

        m1 = 14.0 + 5 logΔ + 10.0 log r           [   ,-77]  (              〜2013年 6月16日)
        m1 = -5   + 5 logΔ + 40   log r(t + 300)  [-77,   ]  (2013年 6月16日〜              )

        ※ 灰色の曲線は、m1 = 14.0 + 5 logΔ + 10.0 log r の光度曲線です。

---------------------------------------------------------------------

軌道要素はM.P.E.C. 2013-N23に掲載されたものです。
星図はステラナビゲータ Ver.8 (アストロアーツ) で作成したものです。
光度グラフはComet for Windowsで作成したものです。

---------------------------------------------------------------------

Copyright(C) Seiichi Yoshida (comet@aerith.net). All rights reserved.